Location: Valasske Mezirici
(49.4670°N, 17.9670°E)
Time: 17:21:22
(UTC+02:00)

ISS - Visible Passes

Search period start: 25 September 2022 00:00
Search period end: 05 October 2022 00:00
Orbit: 414 x 417 km, 51.6° (Epoch: 25 September)

Date Brightness Start Highest point End Pass type
(mag) Time Alt. Az. Time Alt. Az. Time Alt. Az.
25 Sep -3.7 20:34:48 10° WNW 20:38:09 67° N 20:38:20 65° NE visible
26 Sep -3.5 19:46:08 10° WNW 19:49:28 59° N 19:51:30 21° E visible
26 Sep -1.4 21:22:55 10° WNW 21:24:22 23° W 21:24:22 23° W visible
27 Sep -3.8 20:34:14 10° WNW 20:37:32 80° SW 20:37:32 80° SW visible
28 Sep -3.8 19:45:32 10° WNW 19:48:55 79° NNE 19:50:42 25° E visible
28 Sep -1.1 21:22:28 10° W 21:23:35 17° W 21:23:35 17° W visible
29 Sep -3.6 18:56:49 10° WNW 19:00:10 66° N 19:03:32 10° E visible
29 Sep -3.0 20:33:38 10° WNW 20:36:46 43° SW 20:36:46 43° SW visible
30 Sep -3.5 19:44:52 10° WNW 19:48:12 63° SSW 19:50:00 24° SE visible
30 Sep -0.6 21:22:31 10° WSW 21:22:53 11° WSW 21:22:53 11° WSW visible
01 Oct -3.7 18:56:07 10° WNW 18:59:29 85° SSW 19:02:50 10° ESE visible
01 Oct -1.8 20:33:14 10° W 20:35:52 21° SW 20:36:09 21° SSW visible
02 Oct -2.3 19:44:14 10° W 19:47:16 32° SSW 19:49:30 15° SSE visible
03 Oct -2.9 18:55:21 10° WNW 18:58:35 46° SSW 19:01:50 10° SE visible
04 Oct -1.0 19:44:02 10° W 19:46:06 15° SW 19:48:09 10° S visible
